Home   Weather   Santa Maria   Past weeks

Flag for Cabo Verde Past Weather in Santa Maria, Cabo Verde — Yesterday and Last 2 Weeks

77 °F

Partly cloudy.

Feels Like: 79 °F
Forecast: 76 / 85 °F
Wind: 10 mph from Northeast

Location: Sal

Current Time: Oct 23, 2016 at 11:05:56 PM

Latest Report: Oct 23, 2016 at 10:00 PM

Visibility: N/A

Pressure: 29.98 "Hg

Humidity: 74%

Dew Point: 68 °F

Location of Santa MariaLocation

Past Weather in Santa Maria — Graph


Santa Maria Temperature Yesterday

Maximum temperature yesterday: 86 °F (at 12:00 PM)
Minimum temperature yesterday: 75 °F (at 12:00 AM)
Average temperature yesterday: 79 °F

High & Low Weather Summary for the Past Weeks

High91 °F (Oct 18, 1:00 PM)94% (Oct 9, 4:00 AM)30.01 "Hg (Oct 9, 4:00 AM)
Low72 °F (Oct 16, 3:00 AM)36% (Oct 18, 1:00 PM)29.86 "Hg (Oct 15, 5:00 PM)
Average80 °F75%29.94 "Hg
* Reported Oct 8 10:00 PM — Oct 23 10:00 PM, Santa Maria, Weather by CustomWeather, © 2016

Note: Actual official high and low records may vary slightly from our data, if they occured in-between our weather recording intervals... More about our weather records


Santa Maria Weather History for the Previous 24 Hours

Scroll right to see more
Time TempWeatherWind HumidityBarometerVisibility
10:00 PM
Sun, Oct 23
77 °FPartly cloudy.10 mph74%29.98 "HgN/A
9:00 PM77 °FPassing clouds.10 mph74%29.98 "HgN/A
8:00 PM77 °FPassing clouds.9 mph74%29.98 "HgN/A
7:00 PM77 °FPartly cloudy.14 mph74%29.98 "HgN/A
6:00 PM79 °FPartly cloudy.12 mph70%29.95 "HgN/A
5:00 PM79 °FPassing clouds.12 mph70%29.95 "HgN/A
4:00 PM82 °FBroken clouds.15 mph62%29.92 "HgN/A
2:00 PM86 °FBroken clouds.10 mph55%29.95 "HgN/A
1:00 PM86 °FScattered clouds.12 mph55%29.95 "HgN/A
12:00 PM84 °FScattered clouds.12 mph58%29.98 "HgN/A
11:00 AM82 °FBroken clouds.14 mph62%30.01 "HgN/A
10:00 AM82 °FPartly sunny.15 mph62%30.01 "HgN/A
9:00 AM81 °FScattered clouds.14 mph66%30.01 "HgN/A
8:00 AM79 °FScattered clouds.13 mph70%29.98 "HgN/A
7:00 AM75 °FScattered clouds.10 mph78%29.98 "HgN/A
6:00 AM75 °FPassing clouds.12 mph78%29.98 "HgN/A
5:00 AM75 °FScattered clouds.10 mph78%29.98 "HgN/A
4:00 AM75 °FPassing clouds.9 mph74%29.98 "HgN/A
3:00 AM75 °FPassing clouds.10 mph78%29.98 "HgN/A
2:00 AM75 °FPassing clouds.9 mph78%29.98 "HgN/A
1:00 AM77 °FPassing clouds.9 mph74%30.01 "HgN/A
12:00 AM77 °FPassing clouds.9 mph74%30.01 "HgN/A
11:00 PM
Sat, Oct 22
77 °FPassing clouds.9 mph74%30.01 "HgN/A
Weather by CustomWeather, © 2016

See weather overviewHow to use our weather pages